DW4379 Weather Reports


Display with metric or nautical units.
time (UTC)temp
F
wind
direction
speed
MPH
gust
MPH
rain 1hr
in
rain 24hr
in
rain mn
in
humidity
%
barometer
mb
20260506001503 48 29 1.0 4.0 0.00 0.00 0.00 96 1007.5
20260506001003 48 11 1.0 3.0 0.00 0.00 0.00 97 1007.1
20260506000503 48 4 1.0 3.0 0.00 0.00 0.00 97 1007.3
20260506000004 49 5 1.0 5.0 0.00 0.00 0.00 97 1007.8
20260505235503 49 1 1.0 5.0 0.00 0.00 0.00 97 1007.5
20260505235003 49 360 0.0 3.0 0.00 0.00 0.00 96 1007.6
20260505234719 49 4 0.0 2.0 0.00 0.00 0.00 96 1007.4
20260505234003 49 2 1.0 3.0 0.00 0.00 0.00 97 1007.4
20260505233503 48 8 1.0 3.0 0.00 0.00 0.00 96 1007.4
20260505233004 49 14 1.0 3.0 0.00 0.00 0.00 96 1007.4
20260505232503 49 9 1.0 3.0 0.00 0.00 0.00 96 1007.5
20260505232003 49 30 0.0 3.0 0.00 0.00 0.00 96 1007.3
20260505231503 49 42 0.0 3.0 0.00 0.00 0.00 96 1007.3
20260505231003 49 16 1.0 5.0 0.00 0.00 0.00 96 1007.6
20260505230504 48 9 1.0 6.0 0.00 0.00 0.00 96 1007.1
20260505230003 48 10 1.0 6.0 0.00 0.00 0.00 96 1007.2
20260505225504 48 11 1.0 5.0 0.00 0.00 0.00 96 1007.2
20260505225217 48 6 1.0 5.0 0.00 0.00 0.00 96 1007.2
20260505224503 48 1 2.0 5.0 0.00 0.00 0.00 96 1007.6
20260505224003 48 3 2.0 4.0 0.00 0.00 0.00 96 1007.6
20260505223503 49 9 2.0 7.0 0.00 0.00 0.00 96 1007.7
20260505223003 49 12 2.0 7.0 0.00 0.00 0.00 96 1007.7
20260505222503 49 6 2.0 5.0 0.00 0.00 0.00 96 1007.9
20260505222217 49 9 2.0 8.0 0.00 0.00 0.00 96 1007.9
20260505221503 49 10 2.0 8.0 0.00 0.00 0.00 96 1007.4
20260505221003 50 351 1.0 5.0 0.00 0.00 0.00 96 1007.7
20260505220503 50 346 1.0 5.0 0.00 0.00 0.00 96 1008.1
20260505220003 50 342 1.0 5.0 0.00 0.00 0.00 96 1008.0
20260505215503 50 353 2.0 6.0 0.00 0.00 0.00 96 1007.8
20260505215003 50 356 2.0 6.0 0.00 0.00 0.00 96 1007.4
20260505214503 50 355 2.0 10.0 0.00 0.00 0.00 96 1007.3
20260505214003 50 2 3.0 10.0 0.00 0.00 0.00 96 1007.5
20260505213503 50 10 3.0 10.0 0.00 0.00 0.00 96 1007.3
20260505213003 50 7 2.0 6.0 0.00 0.00 0.00 96 1007.2
20260505212503 51 356 1.0 4.0 0.00 0.00 0.00 96 1007.2
20260505212003 51 360 1.0 4.0 0.00 0.00 0.00 96 1007.4
20260505211503 50 5 1.0 4.0 0.00 0.00 0.00 96 1007.5
20260505211003 50 360 1.0 4.0 0.00 0.00 0.00 96 1007.5
20260505210503 51 347 1.0 4.0 0.00 0.00 0.00 96 1007.8
20260505210003 51 331 0.0 2.0 0.00 0.00 0.00 96 1008.1
20260505205503 51 351 0.0 1.0 0.00 0.00 0.00 96 1008.2
20260505205003 51 331 0.0 1.0 0.00 0.00 0.00 96 1008.3
20260505204503 51 323 0.0 1.0 0.00 0.00 0.00 95 1008.1
20260505204218 51 326 0.0 1.0 0.00 0.00 0.00 95 1008.1
20260505203503 51 315 1.0 2.0 0.00 0.00 0.00 95 1008.1
20260505203003 51 307 1.0 3.0 0.00 0.00 0.00 95 1008.0
20260505202503 51 306 1.0 3.0 0.00 0.00 0.00 95 1007.9
20260505202003 51 313 1.0 3.0 0.00 0.00 0.00 94 1008.0
20260505201503 52 329 1.0 3.0 0.00 0.00 0.00 95 1007.8
20260505201218 52 327 1.0 3.0 0.00 0.00 0.00 95 1007.8
20260505200503 52 313 1.0 2.0 0.00 0.00 0.00 95 1007.9
20260505200218 52 307 1.0 2.0 0.00 0.00 0.00 95 1007.8
20260505195503 52 315 1.0 2.0 0.00 0.00 0.00 95 1007.6
20260505195003 52 333 1.0 5.0 0.00 0.00 0.00 95 1007.7
20260505194717 52 338 0.0 5.0 0.00 0.00 0.00 95 1007.8
20260505194003 51 0 0.0 0.0 0.00 0.00 0.00 95 1007.4
20260505193717 52 0 0.0 0.0 0.00 0.00 0.00 95 1007.5
20260505193003 52 0 0.0 0.0 0.00 0.00 0.00 96 1007.7
20260505192503 52 0 0.0 0.0 0.00 0.00 0.00 96 1007.8
20260505192218 52 306 0.0 1.0 0.00 0.00 0.00 96 1007.7
20260505191503 52 310 0.0 1.0 0.00 0.00 0.00 96 1007.6
20260505191003 52 313 0.0 1.0 0.00 0.00 0.00 96 1007.7
20260505190503 52 0 0.0 0.0 0.00 0.00 0.00 96 1007.6
20260505190004 52 0 0.0 0.0 0.00 0.00 0.00 96 1007.5
20260505185503 52 0 0.0 0.0 0.00 0.00 0.00 96 1007.5
20260505185003 52 0 0.0 0.0 0.00 0.00 0.00 96 1007.4
20260505184503 52 0 0.0 0.0 0.00 0.00 0.00 96 1007.5
20260505184003 51 0 0.0 0.0 0.00 0.00 0.00 96 1007.4
20260505183503 52 344 0.0 1.0 0.00 0.00 0.00 96 1007.4
20260505183003 52 343 0.0 1.0 0.00 0.00 0.00 96 1007.5
20260505182503 52 349 0.0 1.0 0.00 0.00 0.00 96 1007.5
20260505182217 52 1 0.0 1.0 0.00 0.00 0.00 96 1007.5
20260505181503 52 1 0.0 2.0 0.00 0.00 0.00 96 1007.4
20260505181003 52 1 0.0 2.0 0.00 0.00 0.00 96 1007.4
20260505180503 51 2 0.0 2.0 0.00 0.00 0.00 96 1007.5
20260505180004 51 2 0.0 1.0 0.00 0.00 0.00 96 1007.5
20260505175503 51 4 0.0 2.0 0.00 0.00 0.00 96 1007.5
20260505175003 51 9 0.0 2.0 0.00 0.00 0.00 96 1007.6
20260505174503 51 35 0.0 2.0 0.00 0.00 0.00 96 1007.6
20260505174003 51 14 1.0 4.0 0.00 0.00 0.00 96 1007.6
20260505173503 51 2 1.0 4.0 0.00 0.00 0.00 96 1007.6
20260505173003 51 357 1.0 3.0 0.00 0.00 0.00 96 1007.5
20260505172503 51 356 1.0 3.0 0.00 0.00 0.00 96 1007.3
20260505172003 51 18 1.0 5.0 0.00 0.00 0.00 96 1007.3
20260505171503 51 23 2.0 5.0 0.00 0.00 0.00 96 1007.3
20260505171003 51 36 2.0 7.0 0.00 0.00 0.00 96 1007.1
20260505170718 50 39 1.0 7.0 0.00 0.00 0.00 96 1007.2
20260505170217 50 26 2.0 7.0 0.00 0.00 0.00 96 1007.1
20260505165503 51 22 2.0 6.0 0.00 0.00 0.00 96 1007.1
20260505165003 50 27 2.0 7.0 0.00 0.00 0.00 96 1007.1
20260505164504 50 17 2.0 7.0 0.00 0.00 0.00 97 1007.1
20260505164003 50 357 1.0 5.0 0.00 0.00 0.00 96 1007.3
20260505163503 50 357 2.0 5.0 0.00 0.00 0.00 96 1007.3
20260505163003 50 6 1.0 4.0 0.00 0.00 0.00 96 1007.3
20260505162503 50 24 1.0 4.0 0.00 0.00 0.00 96 1007.3
20260505162217 50 29 2.0 4.0 0.00 0.00 0.00 96 1007.4
20260505161503 50 14 1.0 5.0 0.00 0.00 0.00 96 1007.7
20260505161003 50 14 2.0 6.0 0.00 0.00 0.00 96 1007.6
20260505160503 50 20 1.0 6.0 0.00 0.00 0.00 95 1007.9
20260505153003 52 319 1.0 5.0 0.00 0.00 0.00 94 1008.2
20260505152504 54 340 1.0 3.0 0.00 0.00 0.00 97 1007.9
20260505152003 54 358 0.0 3.0 0.00 0.00 0.00 97 1007.7
20260505151503 54 357 1.0 6.0 0.00 0.00 0.00 97 1007.7
20260505151218 54 357 1.0 6.0 0.00 0.00 0.00 97 1007.8
20260505150717 54 353 1.0 6.0 0.00 0.00 0.00 96 1007.6
20260505125003 57 0 0.0 0.0 0.00 0.00 0.00 97 1007.4
20260505124503 57 0 0.0 0.0 0.00 0.00 0.00 97 1007.5
20260505124003 57 0 0.0 0.0 0.00 0.00 0.00 97 1007.5
20260505123503 57 0 0.0 0.0 0.00 0.00 0.00 97 1007.5
20260505123217 57 0 0.0 0.0 0.00 0.00 0.00 97 1007.4
20260505122503 57 0 0.0 0.0 0.00 0.00 0.00 97 1007.4
20260505122004 57 0 0.0 0.0 0.00 0.00 0.00 97 1007.3
20260505121718 57 0 0.0 0.0 0.00 0.00 0.00 97 1007.2
20260505121003 57 0 0.0 0.0 0.00 0.00 0.00 97 1007.1
20260505120503 56 0 0.0 0.0 0.00 0.00 0.00 97 1007.0
20260505120004 56 0 0.0 0.0 0.00 0.00 0.00 97 1007.1
20260505115503 56 0 0.0 0.0 0.00 0.00 0.00 97 1006.9
20260505115003 56 0 0.0 0.0 0.00 0.00 0.00 97 1006.8
20260505114718 56 0 0.0 0.0 0.00 0.00 0.00 97 1006.6
20260505114003 56 0 0.0 0.0 0.00 0.00 0.00 97 1006.3
20260505113503 56 0 0.0 0.0 0.00 0.00 0.00 96 1006.2
20260505113003 56 0 0.0 0.0 0.00 0.00 0.00 96 1006.1
20260505112504 56 0 0.0 0.0 0.00 0.00 0.00 96 1006.0
20260505112217 56 0 0.0 0.0 0.00 0.00 0.00 96 1006.0
20260505111503 56 0 0.0 0.0 0.00 0.00 0.00 96 1005.7
20260505111217 56 0 0.0 0.0 0.00 0.00 0.00 96 1005.7
20260505110503 56 0 0.0 0.0 0.00 0.00 0.00 96 1005.7
20260505102004 56 107 1.0 6.0 0.00 0.00 0.00 96 1004.9
20260505101503 56 114 1.0 4.0 0.00 0.00 0.00 96 1005.1
20260505101004 56 115 1.0 4.0 0.00 0.00 0.00 96 1004.9
20260505100503 56 121 2.0 4.0 0.00 0.00 0.00 96 1004.9
20260505100003 56 123 2.0 4.0 0.00 0.00 0.00 96 1004.8
20260505095503 56 114 2.0 6.0 0.00 0.00 0.00 96 1004.6
20260505095003 56 112 2.0 6.0 0.00 0.00 0.00 96 1004.5
20260505094717 56 113 2.0 6.0 0.00 0.00 0.00 96 1004.7
20260505094003 56 107 1.0 3.0 0.00 0.00 0.00 96 1005.0
20260505093503 56 115 1.0 3.0 0.00 0.00 0.00 96 1005.0
20260505093003 56 147 1.0 3.0 0.00 0.00 0.00 96 1004.8
20260505092717 56 134 1.0 4.0 0.00 0.00 0.00 96 1004.7
20260505092003 56 127 1.0 4.0 0.00 0.00 0.00 96 1004.9
20260505091503 56 121 1.0 4.0 0.00 0.00 0.00 96 1004.9
20260505091218 56 125 1.0 4.0 0.00 0.00 0.00 95 1005.3
20260505090503 56 174 0.0 3.0 0.00 0.00 0.00 95 1005.6
20260505090004 56 169 1.0 3.0 0.00 0.00 0.00 95 1005.6
20260505085503 56 166 1.0 2.0 0.00 0.00 0.00 95 1005.9
20260505085004 56 175 0.0 2.0 0.00 0.00 0.00 95 1006.0
20260505084717 56 214 0.0 1.0 0.00 0.00 0.00 95 1006.3
20260505084003 56 227 0.0 2.0 0.00 0.00 0.00 95 1006.1
20260505083503 56 200 0.0 2.0 0.00 0.00 0.00 95 1006.0
20260505083003 56 160 0.0 3.0 0.00 0.00 0.00 95 1006.1
20260505082503 56 142 0.0 3.0 0.00 0.00 0.00 95 1005.8
20260505082003 56 129 1.0 2.0 0.00 0.00 0.00 95 1005.7
20260505081503 56 125 1.0 3.0 0.00 0.00 0.00 95 1005.6
20260505081003 56 119 1.0 5.0 0.00 0.00 0.00 94 1005.6
20260505080503 56 101 1.0 5.0 0.00 0.00 0.00 94 1005.7
20260505080004 57 84 0.0 2.0 0.00 0.00 0.00 94 1006.3
20260505075503 57 92 0.0 2.0 0.00 0.00 0.00 94 1006.4
20260505075003 57 98 0.0 2.0 0.00 0.00 0.00 94 1006.7
20260505074503 57 117 0.0 2.0 0.00 0.00 0.00 94 1006.4
20260505074003 57 108 0.0 3.0 0.00 0.00 0.00 93 1006.4
20260505073503 57 103 0.0 3.0 0.00 0.00 0.00 93 1006.6
20260505073003 57 113 0.0 2.0 0.00 0.00 0.00 93 1007.0
20260505072503 57 91 0.0 3.0 0.00 0.00 0.00 92 1006.8
20260505072003 57 69 1.0 4.0 0.00 0.00 0.00 92 1006.8
20260505071503 57 68 1.0 4.0 0.00 0.00 0.00 90 1006.5
20260505071003 58 63 0.0 3.0 0.00 0.00 0.00 89 1006.9
20260505070503 58 354 0.0 5.0 0.00 0.00 0.00 87 1007.3
20260505070004 59 346 1.0 5.0 0.00 0.00 0.00 85 1007.3
20260505065503 60 332 2.0 7.0 0.00 0.00 0.00 81 1007.2
20260505065003 62 320 2.0 7.0 0.00 0.00 0.00 77 1007.3
20260505064718 62 316 2.0 4.0 0.00 0.00 0.00 74 1007.6
20260505064004 62 318 2.0 4.0 0.00 0.00 0.00 72 1006.7
20260505063503 63 313 3.0 7.0 0.00 0.00 0.00 71 1006.6
20260505063003 63 318 4.0 11.0 0.00 0.00 0.00 70 1006.2
20260505062503 64 327 4.0 14.0 0.00 0.00 0.00 68 1005.7
20260505062003 66 328 5.0 21.0 0.00 0.00 0.00 66 1005.7
20260505061503 70 324 3.0 21.0 0.00 0.00 0.00 63 1005.3
20260505061004 70 270 1.0 5.0 0.00 0.00 0.00 59 1004.1
20260505060503 70 261 1.0 5.0 0.00 0.00 0.00 59 1003.4
20260505060004 70 256 1.0 5.0 0.00 0.00 0.00 59 1003.0
20260505055718 70 253 2.0 5.0 0.00 0.00 0.00 59 1002.9
20260505055003 71 227 2.0 6.0 0.00 0.00 0.00 58 1002.4
20260505054718 71 218 2.0 7.0 0.00 0.00 0.00 58 1002.4
20260505054004 71 236 2.0 9.0 0.00 0.00 0.00 58 1002.3
20260505053503 71 226 2.0 9.0 0.00 0.00 0.00 57 1002.3
20260505053003 71 235 2.0 10.0 0.00 0.00 0.00 58 1002.2
20260505052718 71 240 1.0 10.0 0.00 0.00 0.00 57 1002.3
20260505052003 71 243 2.0 6.0 0.00 0.00 0.00 57 1002.5
20260505051503 71 237 2.0 7.0 0.00 0.00 0.00 56 1002.5
20260505051217 72 239 2.0 7.0 0.00 0.00 0.00 56 1002.5
20260505050718 72 246 2.0 11.0 0.00 0.00 0.00 56 1002.6
20260505041503 72 242 1.0 7.0 0.00 0.00 0.00 55 1002.1
20260505041003 72 239 2.0 7.0 0.00 0.00 0.00 55 1002.2
20260505040503 71 237 2.0 5.0 0.00 0.00 0.00 55 1002.3
20260505040220 71 233 2.0 6.0 0.00 0.00 0.00 55 1002.2
20260505035503 71 247 1.0 6.0 0.00 0.00 0.00 55 1002.3
20260505035004 71 245 2.0 5.0 0.00 0.00 0.00 56 1002.4
20260505034503 71 243 2.0 8.0 0.00 0.00 0.00 56 1002.4
20260505034218 71 234 1.0 8.0 0.00 0.00 0.00 56 1002.4
20260505033503 70 221 1.0 8.0 0.00 0.00 0.00 57 1002.5
20260505033003 70 235 0.0 8.0 0.00 0.00 0.00 57 1002.5
20260505032503 70 208 0.0 1.0 0.00 0.00 0.00 57 1002.5
20260505032003 70 191 1.0 4.0 0.00 0.00 0.00 57 1002.5
20260505031504 70 189 1.0 4.0 0.00 0.00 0.00 57 1002.6
20260505031003 70 191 1.0 4.0 0.00 0.00 0.00 57 1002.6
20260505030503 70 209 1.0 4.0 0.00 0.00 0.00 57 1002.6
20260505030003 70 222 0.0 4.0 0.00 0.00 0.00 56 1002.7
20260505025717 70 224 0.0 4.0 0.00 0.00 0.00 56 1002.7
20260505025004 70 235 1.0 3.0 0.00 0.00 0.00 56 1002.7
20260505024717 70 238 1.0 3.0 0.00 0.00 0.00 55 1002.7
20260505024003 70 221 0.0 3.0 0.00 0.00 0.00 56 1002.5
20260505023503 70 220 0.0 4.0 0.00 0.00 0.00 56 1002.4
20260505023003 70 228 1.0 4.0 0.00 0.00 0.00 56 1002.3
20260505022503 70 228 1.0 4.0 0.00 0.00 0.00 56 1002.4
20260505022003 70 220 0.0 4.0 0.00 0.00 0.00 56 1002.3
20260505021503 70 187 0.0 2.0 0.00 0.00 0.00 56 1002.4
20260505021218 70 214 0.0 3.0 0.00 0.00 0.00 56 1002.4
20260505020503 70 207 0.0 4.0 0.00 0.00 0.00 56 1002.3
20260505020004 70 195 1.0 4.0 0.00 0.00 0.00 55 1002.3
20260505015503 70 196 1.0 3.0 0.00 0.00 0.00 56 1002.2
20260505015217 70 189 0.0 3.0 0.00 0.00 0.00 57 1002.2
20260505014503 70 226 0.0 2.0 0.00 0.00 0.00 56 1002.2
20260505014003 70 226 0.0 2.0 0.00 0.00 0.00 56 1002.1
20260505013503 71 218 0.0 2.0 0.00 0.00 0.00 56 1002.0
20260505013003 71 209 0.0 3.0 0.00 0.00 0.00 56 1002.2
20260505012503 71 208 0.0 3.0 0.00 0.00 0.00 55 1002.1
20260505012003 71 194 0.0 2.0 0.00 0.00 0.00 55 1002.1
20260505011503 71 200 0.0 2.0 0.00 0.00 0.00 55 1002.0
20260505011003 72 216 0.0 3.0 0.00 0.00 0.00 55 1001.9
20260505010503 72 220 1.0 3.0 0.00 0.00 0.00 55 1001.9
20260505010004 72 227 0.0 3.0 0.00 0.00 0.00 54 1001.8
20260505005503 72 193 0.0 3.0 0.00 0.00 0.00 54 1001.7
20260505005004 72 192 0.0 3.0 0.00 0.00 0.00 53 1001.6
20260505004503 73 218 0.0 3.0 0.00 0.00 0.00 53 1001.5
20260505004003 73 219 1.0 4.0 0.00 0.00 0.00 52 1001.6
20260505003718 73 222 1.0 4.0 0.00 0.00 0.00 52 1001.6
20260505003003 73 228 1.0 4.0 0.00 0.00 0.00 52 1001.5
20260505002503 74 243 1.0 4.0 0.00 0.00 0.00 51 1001.6
20260505002217 74 236 1.0 3.0 0.00 0.00 0.00 51 1001.5